THOR ABLESTAR DEB, 245

Orbit data source: Space-Track

THOR ABLESTAR DEB, 245 is space debris in LEO originally from a launch on Thu, 29 Jun 1961 UTC launched from the Air Force Eastern Test Range (AFETR). Debris objects in space refer to the collection of defunct objects orbiting the Earth. Examples of debris include non-operational satellites, rocket bodies, and fragments generated from explosions, collisions, or faulty payload assembly.

Loading next visibility...
Identifier
245, 1961-015CA
Orbit
LEO
Country
Flag of USUS
Related business
Manufacturer
Unknown
Mission
Spacecraft
Bus & Motor
Unknown
Mass
Unknown
Launch date (UTC)
1961-06-29 (65 years ago)
Launch vehicle
Unknown
Launch site
Air Force Eastern Test Range (AFETR)
Object type
Payload
Rocket body
Debris
Shape & HBR
Unknown shape, 0.2 m
Radar Cross Section
Medium (>0.1 m² and <1 m²)

Expand to show TLE details & history
Last TLE update: 14 hours ago

TLE from 14 hours ago
0 THOR ABLESTAR DEB
1 00245U 61015CA  26126.40816682  .00000651  00000-0  35392-3 0  9993
2 00245  66.1027 281.2526 0055588 230.7820 128.8325 14.18144529321952
Epoch: 2026-05-06T09:47Z
TLE epoch observation values (Epoch: 2026-05-06T09:47:45.613Z)
Latitude
-0.00003°
Longitude
-89.95656°
Altitude
858.951 km
Speed
7.41 km/s
True Right ascension
18h 45m 00s
True Declination
0° 00' 00"
Sunlit
Object was in full shadow at epoch
Visualization orbit readout
Latitude
Unknown
Longitude
Unknown
Altitude
Unknown
Speed
Unknown
Apparent Right ascension
Unknown
Apparent Declination
Unknown
Sunlit
N/A
Visualization observer readout
Local Sidereal Time
07:46:52
Azimuth
Unknown
Elevation
Unknown
Doppler factor
Unknown
Orbital elements
Apogee altitude
870.158 km
Perigee altitude
790.02 km
Semi-major axis
7,208.226 km
Eccentricity
0.00556
Inclination
66.1027°
RAAN
281.2526°
Arg. of periapsis
230.782°
True anomaly
129.32655°
Mean anomaly
128.8325°
Eccentric anomaly
129.07974°
Mean motion
3.54651 °/min
Orbital period
101.51 mins
BSTAR
0.00035392

Documentation

Showing up to 5 results
|